Weather History for Spirit of St Louis, MO

Change the Weather History Date:

Saturday, July 27, 2013

  Actual Average Record
Temperature  
Mean Temperature 66 °F -  
Max Temperature 78 °F 86 °F 100 °F (2012)
Min Temperature 55 °F 65 °F 53 °F (2004)
Cooling Degree Days 1    
Growing Degree Days 16 (Base 50)    
Moisture  
Dew Point 55 °F    
Average Humidity 67    
Maximum Humidity 96    
Minimum Humidity 38    
Precipitation  
Precipitation 0.01 in - - ()
Sea Level Pressure  
Sea Level Pressure 29.98 in    
Wind  
Wind Speed 4 mph (NW)    
Max Wind Speed 14 mph    
Max Gust Speed 22 mph    
Visibility 10 miles    
Events      
Averages and records for this station are not official NWS values.
T = Trace of Precipitation, MM = Missing Value Source: NWS Daily Summary

Daily Weather History Graph

Daily Weather History Graph

Search for Another Location

Airport:

Trip Planner

Search our weather history database for the weather conditions in past years. The results will help you decide how hot, cold, wet, or windy it might be!

Date:

Astronomy

Jul. 27, 2013 Rise Set
Actual Time 6:00 AM CDT 8:17 PM CDT
Civil Twilight 5:30 AM CDT 8:47 PM CDT
Nautical Twilight 4:53 AM CDT 9:24 PM CDT
Astronomical Twilight 4:12 AM CDT 10:04 PM CDT
Moon 11:10 PM CDT (7/27) 11:36 AM CDT (7/27)
Length of Visible Light 15h 17m
Length of Day
14h 17m
Waning Gibbous, 70% of the Moon is Illuminated
Jul 27
Waning Gibbous
Jul 29
Last Quarter
Aug 6
New
Aug 14
First Quarter
Aug 20
Full

Hourly Weather History & Observations

Time (CDT) Temp. Dew Point Humidity Pressure Visibility Wind Dir Wind Speed Gust Speed Precip Events Conditions
12:54 AM 66.9 °F 64.9 °F 93% 29.96 in 10.0 mi Calm Calm - N/A   Partly Cloudy
1:54 AM 66.0 °F 64.0 °F 93% 29.96 in 10.0 mi WSW 3.5 mph - N/A   Clear
2:54 AM 66.0 °F 62.1 °F 87% 29.96 in 10.0 mi Calm Calm - N/A   Partly Cloudy
3:54 AM 64.9 °F 60.1 °F 84% 29.97 in 10.0 mi Calm Calm - N/A   Mostly Cloudy
4:54 AM 64.0 °F 59.0 °F 84% 29.97 in 10.0 mi Calm Calm - N/A   Mostly Cloudy
5:54 AM 59.0 °F 57.9 °F 96% 29.98 in 10.0 mi West 3.5 mph - N/A   Scattered Clouds
6:54 AM 62.1 °F 57.9 °F 86% 29.99 in 10.0 mi WNW 4.6 mph - 0.01 in   Clear
7:54 AM 64.9 °F 57.9 °F 78% 30.00 in 10.0 mi WNW 4.6 mph - N/A   Clear
8:54 AM 66.9 °F 57.9 °F 73% 30.00 in 10.0 mi NW 4.6 mph - N/A   Clear
9:54 AM 69.1 °F 57.9 °F 68% 30.00 in 10.0 mi WNW 9.2 mph - N/A   Clear
10:54 AM 72.0 °F 55.9 °F 57% 30.00 in 10.0 mi NNW 12.7 mph - N/A   Mostly Cloudy
11:54 AM 73.0 °F 54.0 °F 51% 29.99 in 10.0 mi North 10.4 mph 20.7 mph N/A   Mostly Cloudy
12:54 PM 75.0 °F 53.1 °F 46% 29.98 in 10.0 mi NW 12.7 mph 18.4 mph N/A   Mostly Cloudy
1:54 PM 75.0 °F 51.1 °F 43% 29.97 in 10.0 mi WNW 9.2 mph 16.1 mph N/A   Mostly Cloudy
2:54 PM 75.9 °F 50.0 °F 40% 29.96 in 10.0 mi North 11.5 mph - N/A   Mostly Cloudy
3:54 PM 75.0 °F 50.0 °F 41% 29.95 in 10.0 mi WNW 11.5 mph - N/A   Mostly Cloudy
4:54 PM 75.0 °F 48.9 °F 40% 29.95 in 10.0 mi NW 13.8 mph 21.9 mph N/A   Scattered Clouds
5:54 PM 75.0 °F 48.0 °F 38% 29.96 in 10.0 mi NNW 9.2 mph 17.3 mph N/A   Scattered Clouds
6:54 PM 73.9 °F 48.0 °F 40% 29.96 in 10.0 mi NNW 9.2 mph - N/A   Partly Cloudy
7:54 PM 71.1 °F 48.9 °F 45% 29.96 in 10.0 mi North 3.5 mph - N/A   Partly Cloudy
8:54 PM 62.1 °F 54.0 °F 75% 29.97 in 10.0 mi Calm Calm - N/A   Partly Cloudy
9:54 PM 59.0 °F 53.1 °F 81% 29.99 in 10.0 mi Calm Calm - N/A   Partly Cloudy
10:54 PM 57.9 °F 54.0 °F 87% 29.99 in 10.0 mi Calm Calm - N/A   Partly Cloudy
11:54 PM 55.9 °F 53.1 °F 90% 29.99 in 10.0 mi Calm Calm - N/A   Clear